Location: B?jaj?g
(11.7167°N, 92.6667°E)
Time: 13:47:59
(UTC+00:00)

CZ-2C R/B - Pass Details

Date: 18 September 2020
Orbit: 669 x 783 km, 98.2° (Epoch: 25 October)

Event Time Altitude Azimuth Distance (km) Brightness Sun altitude
Rises 21:42:34 0° 6° (N) 3,250 5.9 -29.1°
Reaches altitude 10° 21:44:54 10° 3° (N) 2,329 5.1 -28.6°
Enters shadow 21:47:23 29° 355° (N) 1,407 3.8 -28.0°
